TimeCST,TemperatureF,Dew PointF,Humidity,Sea Level PressureIn,VisibilityMPH,Wind Direction,Wind SpeedMPH,Gust SpeedMPH,PrecipitationIn,Events,Conditions,WindDirDegrees,DateUTC
12:55 AM,33.8,30.2,87,30.07,10.0,NNW,3.5,-,N/A,,Mostly Cloudy,340,2013-02-23 06:55:00
1:55 AM,32.0,28.4,87,30.07,10.0,North,3.5,-,N/A,,Scattered Clouds,360,2013-02-23 07:55:00
2:15 AM,30.2,28.4,93,30.06,10.0,Calm,Calm,-,N/A,,Clear,0,2013-02-23 08:15:00
2:35 AM,30.2,28.4,93,30.07,10.0,Calm,Calm,-,N/A,,Clear,0,2013-02-23 08:35:00
2:55 AM,30.2,28.4,93,30.07,10.0,Calm,Calm,-,N/A,,Clear,0,2013-02-23 08:55:00
3:15 AM,28.4,28.4,100,30.05,10.0,Calm,Calm,-,N/A,,Clear,0,2013-02-23 09:15:00
3:35 AM,28.4,28.4,100,30.05,10.0,Calm,Calm,-,N/A,,Clear,0,2013-02-23 09:35:00
3:55 AM,28.4,28.4,100,30.06,10.0,Calm,Calm,-,N/A,,Clear,0,2013-02-23 09:55:00
4:15 AM,28.4,28.4,100,30.05,10.0,Calm,Calm,-,N/A,,Clear,0,2013-02-23 10:15:00
4:35 AM,28.4,26.6,93,30.05,10.0,North,3.5,-,N/A,,Clear,10,2013-02-23 10:35:00
4:55 AM,28.4,26.6,93,30.05,10.0,North,4.6,-,N/A,,Clear,360,2013-02-23 10:55:00
5:55 AM,28.4,26.6,93,30.04,10.0,North,6.9,-,N/A,,Scattered Clouds,360,2013-02-23 11:55:00
6:55 AM,28.4,26.6,93,30.05,10.0,Calm,Calm,-,N/A,,Scattered Clouds,0,2013-02-23 12:55:00
7:55 AM,30.2,26.6,86,30.06,10.0,North,4.6,-,N/A,,Scattered Clouds,360,2013-02-23 13:55:00
8:55 AM,33.8,26.6,75,30.04,10.0,North,10.4,-,N/A,,Scattered Clouds,10,2013-02-23 14:55:00
9:55 AM,37.4,28.4,70,30.06,10.0,Calm,Calm,-,N/A,,Scattered Clouds,0,2013-02-23 15:55:00
10:55 AM,42.8,30.2,61,30.06,10.0,NNW,8.1,-,N/A,,Scattered Clouds,330,2013-02-23 16:55:00
12:55 PM,48.2,30.2,50,30.01,10.0,NW,8.1,-,N/A,,Scattered Clouds,320,2013-02-23 18:55:00
1:55 PM,48.2,32.0,54,29.98,10.0,West,4.6,-,N/A,,Partly Cloudy,280,2013-02-23 19:55:00
2:55 PM,48.2,30.2,50,29.98,10.0,NW,5.8,-,N/A,,Partly Cloudy,320,2013-02-23 20:55:00
3:55 PM,46.4,32.0,57,29.98,10.0,NNW,9.2,-,N/A,,Partly Cloudy,330,2013-02-23 21:55:00
4:55 PM,44.6,30.2,57,29.99,10.0,NNW,6.9,-,N/A,,Partly Cloudy,340,2013-02-23 22:55:00
5:55 PM,42.8,30.2,61,30.00,10.0,NNW,4.6,-,N/A,,Partly Cloudy,330,2013-02-23 23:55:00
6:55 PM,39.2,30.2,70,30.01,10.0,NW,3.5,-,N/A,,Partly Cloudy,320,2013-02-24 00:55:00
7:55 PM,37.4,30.2,75,30.01,10.0,Calm,Calm,-,N/A,,Clear,0,2013-02-24 01:55:00
8:55 PM,35.6,32.0,87,30.02,10.0,Calm,Calm,-,N/A,,Clear,0,2013-02-24 02:55:00
9:55 PM,32.0,28.4,87,30.03,10.0,Calm,Calm,-,N/A,,Clear,0,2013-02-24 03:55:00
10:55 PM,32.0,28.4,87,30.04,10.0,Calm,Calm,-,N/A,,Clear,0,2013-02-24 04:55:00
11:55 PM,30.2,30.2,100,30.03,10.0,Calm,Calm,-,N/A,,Clear,0,2013-02-24 05:55:00